Charleston, SC

8:03 AM EDT on April 19, 2018 (GMT -0400)
Charleston Air Force Base-International

Weather History for KCHS - October, 2012

Change the Weather History Date:

Tuesday, October 2, 2012

  Actual Average Record
Temperature  
Mean Temperature 82 °F 71 °F  
Max Temperature 88 °F 81 °F 93 °F (1986)
Min Temperature 76 °F 62 °F 43 °F (1946)
Degree Days  
Heating Degree Days 0 1  
Month to date heating degree days 0 2  
Since 1 July heating degree days 0 5  
Cooling Degree Days 17 7  
Month to date cooling degree days 31 14  
Year to date cooling degree days 2352 2152  
Growing Degree Days 32 (Base 50)    
Moisture  
Dew Point 74 °F    
Average Humidity 83    
Maximum Humidity 100    
Minimum Humidity 65    
Precipitation  
Precipitation 0.02 in 0.17 in 2.63 in (1994)
Month to date precipitation 0.02 0.33  
Year to date precipitation 37.17 42.07  
Snow  
Snow 0.00 in 0.00 in - ()
Month to date snowfall 0.0  
Since 1 July snowfall 0.0 0.0  
Since 1 September snowfall 0.0 0.0  
Snow Depth 0.00 in    
Sea Level Pressure  
Sea Level Pressure 29.87 in    
Wind  
Wind Speed 9 mph (SSW)    
Max Wind Speed 22 mph    
Max Gust Speed 28 mph    
Visibility 10 miles    
Events Rain    
T = Trace of Precipitation, MM = Missing Value Source: NWS Daily Summary

Daily Weather History Graph

Daily Weather History Graph

Search for Another Location

Airport or City:

Astronomy

Oct. 02, 2012 Rise Set
Actual Time 7:15 AM EDT 7:02 PM EDT
Civil Twilight 6:50 AM EDT 7:27 PM EDT
Nautical Twilight 6:22 AM EDT 7:55 PM EDT
Astronomical Twilight 5:53 AM EDT 8:24 PM EDT
Moon 8:25 PM EDT (10/2) 9:30 AM EDT (10/2)
Length of Visible Light 12h 36m
Length of Day
11h 47m
Waning Gibbous, 94% of the Moon is Illuminated
Oct 2
Waning Gibbous
Oct 8
Last Quarter
Oct 15
New
Oct 21
First Quarter
Oct 29
Full

Hourly Weather History & Observations

Time (EDT) Temp. Heat Index Dew Point Humidity Pressure Visibility Wind Dir Wind Speed Gust Speed Precip Events Conditions
12:56 AM 79.0 °F - 75.0 °F 88% 29.79 in 10.0 mi SSE 10.4 mph - N/A   Mostly Cloudy
1:56 AM 79.0 °F - 75.9 °F 90% 29.78 in 10.0 mi SSE 10.4 mph - N/A   Mostly Cloudy
2:56 AM 79.0 °F - 75.9 °F 90% 29.77 in 8.0 mi South 10.4 mph - 0.01 in Rain Light Rain
3:56 AM 78.1 °F - 75.0 °F 90% 29.78 in 10.0 mi South 10.4 mph - 0.00 in   Mostly Cloudy
4:56 AM 77.0 °F - 75.0 °F 94% 29.78 in 10.0 mi South 6.9 mph - N/A   Mostly Cloudy
5:39 AM 78.8 °F - 75.2 °F 89% 29.78 in 10.0 mi South 6.9 mph - N/A   Mostly Cloudy
5:56 AM 77.0 °F - 75.0 °F 94% 29.79 in 10.0 mi SSW 5.8 mph - N/A   Mostly Cloudy
6:19 AM 77.0 °F - 75.2 °F 94% 29.79 in 10.0 mi SSW 4.6 mph - N/A   Mostly Cloudy
6:56 AM 75.9 °F - 75.0 °F 97% 29.81 in 10.0 mi SSW 5.8 mph - N/A   Mostly Cloudy
7:56 AM 77.0 °F - 75.0 °F 94% 29.82 in 10.0 mi South 4.6 mph - N/A   Scattered Clouds
8:56 AM 81.0 °F 87.3 °F 75.9 °F 85% 29.85 in 10.0 mi SW 8.1 mph - N/A   Scattered Clouds
9:56 AM 84.0 °F 91.2 °F 73.9 °F 72% 29.86 in 10.0 mi SSW 12.7 mph - N/A   Scattered Clouds
10:56 AM 86.0 °F 93.0 °F 73.0 °F 65% 29.87 in 10.0 mi SSW 16.1 mph 21.9 mph N/A   Scattered Clouds
11:56 AM 84.9 °F 92.1 °F 73.9 °F 69% 29.87 in 10.0 mi SSW 8.1 mph - 0.00 in   Scattered Clouds
12:56 PM 84.9 °F 92.1 °F 73.9 °F 69% 29.86 in 10.0 mi South 13.8 mph - N/A   Scattered Clouds
1:56 PM 86.0 °F 93.0 °F 73.0 °F 65% 29.86 in 10.0 mi South 16.1 mph 23.0 mph N/A   Mostly Cloudy
2:56 PM 84.9 °F 92.1 °F 73.9 °F 69% 29.86 in 10.0 mi South 16.1 mph 23.0 mph N/A   Mostly Cloudy
3:31 PM 77.0 °F - 71.6 °F 83% 29.87 in 8.0 mi SW 8.1 mph - 0.00 in Rain Light Rain
3:49 PM 78.8 °F - 71.6 °F 78% 29.87 in 10.0 mi SW 8.1 mph - 0.00 in   Partly Cloudy
3:56 PM 80.1 °F 83.8 °F 72.0 °F 76% 29.87 in 10.0 mi SW 5.8 mph - 0.00 in   Scattered Clouds
4:56 PM 84.0 °F 91.2 °F 73.9 °F 72% 29.88 in 10.0 mi South 10.4 mph - N/A   Scattered Clouds
5:56 PM 82.9 °F 88.8 °F 73.0 °F 72% 29.90 in 10.0 mi South 9.2 mph - N/A   Scattered Clouds
6:56 PM 80.1 °F 84.5 °F 73.9 °F 81% 29.91 in 10.0 mi South 6.9 mph - N/A   Scattered Clouds
7:25 PM 78.8 °F - 73.4 °F 83% 29.93 in 10.0 mi SSW 8.1 mph - 0.00 in Rain Light Rain
7:56 PM 78.1 °F - 75.0 °F 90% 29.94 in 10.0 mi South 6.9 mph - 0.00 in Rain Light Rain
8:56 PM 78.1 °F - 75.0 °F 90% 29.95 in 10.0 mi South 9.2 mph - 0.01 in   Mostly Cloudy
9:56 PM 77.0 °F - 75.0 °F 94% 29.96 in 10.0 mi South 5.8 mph - 0.00 in Rain Light Rain
10:05 PM 78.8 °F - 75.2 °F 89% 29.97 in 10.0 mi South 8.1 mph - 0.00 in Rain Light Rain
10:56 PM 75.9 °F - 73.0 °F 91% 29.99 in 10.0 mi South 8.1 mph - 0.00 in   Mostly Cloudy
11:56 PM 75.9 °F - 73.9 °F 94% 30.01 in 10.0 mi South 5.8 mph - N/A   Mostly Cloudy